TOPSWRTT 000
TTAA00 KICT 030103

Wichita AWIPS Roundup
National Weather Service Wichita KS
800 PM CDT TUE SEP 02 2014

....Central Kansas....
  
CITY           SKY/WX    TMP DP  RH WIND       PRES   REMARKS
RUSSELL        CLEAR     79  67  66 SE9       29.90S HX  81           
SALINA         CLEAR     80  68  66 SE7       29.91R HX  83           
GREAT BEND     CLEAR     79  68  69 SE6       29.91S HX  81           
ELLSWORTH      CLEAR     79  70  73 SE6       29.91R HX  81           
MCPHERSON      CLEAR     79  70  73 SE5       29.92R HX  81           
HAYS           CLEAR     79  66  65 S10       29.91S HX  81           

....South Central Kansas....
  
CITY           SKY/WX    TMP DP  RH WIND       PRES   REMARKS
HUTCHINSON     CLEAR     80  67  64 SE7       29.91S HX  82           
NEWTON         CLEAR     75  64  69 SE6       29.96S                  
KINGMAN        PTCLDY    81  72  74 SE6       29.91R HX  84           
WICHITA (ICT)  PTCLDY    82  68  62 E9        29.90F HX  85           
JABARA ARPT    CLEAR     79  68  69 SE6       29.92S HX  81           
MCCONNELL AFB  CLEAR     80  70  71 E7        29.91F HX  83           
EL DORADO      FAIR      79  66  65 S6        29.92S HX  81           
HARPER           N/A     81  73  78 E6        29.93R HX  85           
WELLINGTON     CLOUDY    81  73  78 SE7       29.92R HX  85           
WINFIELD       MOCLDY    80  72  76 E7        29.92F HX  84           
 
....Southeast Kansas....
  
CITY           SKY/WX    TMP DP  RH WIND       PRES   REMARKS
EUREKA         NOT AVBL                                               
CHANUTE        CLEAR     76  68  76 S7        29.94S                  
PARSONS        CLEAR     75  70  84 CALM      29.95S                  
COFFEYVILLE    CLEAR     77  71  82 S6        29.94R                  
INDEPENDENCE   CLEAR     77  70  78 SE5       29.94S                  
FORT SCOTT     CLEAR     79  70  73 SE3       29.94S HX  81           
PITTSBURG      CLEAR     78  71  81 S3        29.96R HX  80           

....Western Kansas....
  
CITY           SKY/WX    TMP DP  RH WIND       PRES   REMARKS
GOODLAND       CLEAR     78  57  48 S14       29.94F                  
HILL CITY      CLEAR     80  66  62 SE7       29.91S HX  82           
LIBERAL        CLEAR     84  64  51 E9        29.93S HX  86           
GARDEN CITY    CLEAR     78  64  61 S7        29.93S HX  80           
DODGE CITY     PTCLDY    79  67  66 SE10      29.93S HX  81           
PRATT          PTCLDY    79  66  65 SE8       29.93R HX  81           
MEDICINE LODGE NOT AVBL                                               

....Northeast Kansas....
  
CITY           SKY/WX    TMP DP  RH WIND       PRES   REMARKS
CONCORDIA      CLEAR     75  70  84 SE5       29.92R                  
TOPEKA         CLEAR     78  70  76 E5        29.93R HX  80           
MANHATTAN      CLEAR     79  68  69 E3        29.91S HX  81           
LAWRENCE       CLEAR     73  68  84 E5        29.94R                  
OLATHE         CLEAR     75  68  78 CALM      29.95R                  
EMPORIA        CLEAR     76  69  79 E6        29.94R                  

....Oklahoma....
  
CITY           SKY/WX    TMP DP  RH WIND       PRES   REMARKS
GAGE           CLEAR     88  64  44 S14       29.87R HX  89           
PONCA CITY     PTCLDY    80  70  71 SE12      29.90S HX  83           
BARTLESVILLE   CLEAR     76  70  82 S8        29.95R                  
TULSA          PTCLDY    75  68  78 SE10      29.93R                  
OKLAHOMA CITY  PTCLDY    86  68  54 SE14      29.90R HX  89           

Note: "fair" indicates few or no clouds below 12,000 feet with no
significant weather and/or obstructions to visibility.
  

USA.gov is the U.S. government's official web portal to all federal, state and local government web resources and services.